Powrót do katalogu

SCOUT G-1 DEB

AktywnyPO
NORAD 19559·DEBRIS·🇺🇸 United States

Wystrzelony Aug 25, 1988 z Vandenberg Space Force Base

Loading…

Następne Przeloty (najbliższe 24 godziny)

TLE

ŚwieżeSource: Space-Track

Epoka: Sep 14, 2026, 08:07 UTC

1 19559U 88074F   26257.33820696  .00000099  00000-0  14417-3 0  9993
2 19559  89.3865  33.2922 0097016  44.8807 343.9690 13.45627123866250

Śledź SCOUT G-1 DEB w czasie rzeczywistym z AllMySat

Download on the App Store